Total_Precipitation_Accumulation
0.50 0.53 0.63 0.68 0.66 0.62 0.63 0.58 0.57 0.52 0.50 0.51 0.52 0.54 0.52 0.58 0.75 0.92 0.89 0.81 0.86 0.93 1.02 1.13 1.19 1.21 1.20 1.07 1.01 0.98 0.98 1.07 1.01 0.85 0.79 0.81 0.70 0.54 0.47 0.45 0.42 0.41 0.36
0.32 0.39 0.47 0.58 0.58 0.57 0.60 0.63 0.61 0.57 0.50 0.44 0.44 0.46 0.46 0.55 0.70 0.99 1.13 1.14 1.11 1.02 1.08 1.27 1.35 1.30 1.19 1.10 1.08 1.02 1.00 1.10 1.04 0.95 0.92 0.87 0.79 0.68 0.59 0.54 0.45 0.41 0.39
0.24 0.28 0.35 0.44 0.50 0.54 0.56 0.55 0.54 0.56 0.55 0.51 0.50 0.51 0.56 0.57 0.60 0.78 0.99 1.09 1.10 1.06 1.11 1.16 1.19 1.24 1.20 1.12 1.05 1.01 0.99 1.09 1.10 1.01 1.06 1.05 0.94 0.82 0.71 0.60 0.52 0.50 0.41
0.23 0.30 0.34 0.40 0.46 0.50 0.51 0.54 0.54 0.60 0.61 0.61 0.61 0.62 0.62 0.59 0.58 0.70 0.84 0.92 0.96 1.00 1.05 1.08 1.09 1.09 1.15 1.20 1.12 1.07 1.08 1.10 1.11 1.10 1.12 1.25 1.15 0.98 0.82 0.69 0.59 0.55 0.48
0.26 0.32 0.35 0.41 0.45 0.47 0.50 0.55 0.60 0.63 0.64 0.69 0.75 0.73 0.69 0.62 0.58 0.70 0.78 0.73 0.80 0.86 0.86 0.83 0.91 1.08 1.16 1.20 1.11 1.08 1.15 1.14 1.13 1.17 1.18 1.30 1.32 1.17 0.93 0.72 0.63 0.61 0.57
0.41 0.43 0.41 0.44 0.49 0.49 0.53 0.56 0.64 0.68 0.73 0.80 0.84 0.84 0.77 0.60 0.62 0.68 0.69 0.67 0.71 0.77 0.79 0.75 0.74 0.84 0.97 1.04 1.01 0.99 1.04 1.09 1.13 1.16 1.21 1.29 1.35 1.26 1.09 0.92 0.78 0.66 0.62
0.49 0.59 0.60 0.60 0.63 0.64 0.67 0.70 0.75 0.85 0.89 0.91 0.89 0.88 0.85 0.81 0.74 0.64 0.59 0.58 0.63 0.69 0.69 0.66 0.56 0.54 0.70 0.80 0.89 0.91 0.89 0.88 0.95 1.10 1.20 1.22 1.35 1.40 1.33 1.11 1.01 0.89 0.72
0.70 0.80 0.86 0.89 0.93 0.99 1.03 0.99 1.01 1.06 1.11 1.09 1.03 1.03 1.09 1.02 0.91 0.77 0.68 0.59 0.58 0.58 0.60 0.61 0.62 0.61 0.62 0.69 0.79 0.85 0.87 0.83 0.81 0.86 0.99 1.18 1.35 1.51 1.49 1.36 1.26 1.11 0.90
0.91 1.02 1.06 1.11 1.17 1.21 1.19 1.23 1.31 1.38 1.39 1.39 1.32 1.32 1.34 1.38 1.30 1.07 0.93 0.78 0.73 0.71 0.75 0.76 0.73 0.68 0.66 0.61 0.65 0.70 0.74 0.81 0.78 0.78 0.84 1.05 1.24 1.38 1.53 1.46 1.33 1.15 0.95
0.87 0.96 1.12 1.28 1.40 1.38 1.37 1.48 1.60 1.70 1.66 1.64 1.64 1.65 1.62 1.61 1.50 1.17 1.01 0.88 0.89 0.89 0.93 0.88 0.74 0.62 0.55 0.49 0.52 0.59 0.60 0.61 0.71 0.75 0.78 0.87 1.03 1.15 1.31 1.31 1.19 1.14 0.97
1.03 1.10 1.22 1.37 1.51 1.53 1.58 1.61 1.70 1.79 1.78 1.75 1.69 1.64 1.60 1.58 1.45 1.16 1.04 0.95 0.99 1.02 0.94 0.88 0.81 0.66 0.51 0.46 0.45 0.51 0.53 0.59 0.67 0.73 0.83 0.96 1.11 1.24 1.24 1.21 1.17 1.04 0.95
1.28 1.41 1.46 1.52 1.51 1.48 1.58 1.67 1.72 1.79 1.78 1.76 1.78 1.68 1.58 1.53 1.37 1.17 1.01 0.95 1.02 1.10 1.07 0.98 0.93 0.76 0.55 0.50 0.45 0.44 0.46 0.47 0.61 0.69 0.76 0.89 1.03 1.17 1.26 1.31 1.30 1.16 0.97
1.32 1.40 1.51 1.56 1.58 1.55 1.59 1.63 1.74 1.80 1.79 1.73 1.73 1.74 1.63 1.53 1.46 1.23 1.01 0.89 0.94 1.03 1.15 1.18 1.04 0.88 0.72 0.61 0.59 0.56 0.50 0.48 0.60 0.71 0.71 0.75 0.82 0.96 1.24 1.46 1.56 1.49 1.22
1.08 1.14 1.19 1.29 1.39 1.50 1.61 1.60 1.61 1.68 1.75 1.78 1.76 1.69 1.64 1.60 1.61 1.41 1.18 1.02 1.00 1.09 1.18 1.22 1.10 1.00 0.86 0.72 0.67 0.61 0.53 0.50 0.56 0.64 0.68 0.73 0.84 0.98 1.16 1.35 1.56 1.60 1.43
0.94 0.97 1.05 1.15 1.25 1.40 1.54 1.59 1.51 1.51 1.57 1.55 1.47 1.41 1.39 1.38 1.45 1.37 1.19 1.10 1.09 1.16 1.24 1.33 1.27 1.17 1.08 0.97 0.88 0.82 0.76 0.69 0.62 0.64 0.77 0.83 0.91 0.95 1.03 1.17 1.39 1.50 1.37
0.90 0.88 0.91 0.97 1.07 1.18 1.29 1.35 1.23 1.06 1.04 1.00 0.90 0.81 0.78 0.81 0.90 0.92 0.86 0.81 0.84 0.95 1.08 1.24 1.22 1.14 1.10 1.07 1.04 0.98 0.94 0.87 0.81 0.81 0.85 0.91 0.94 0.97 1.03 1.13 1.25 1.34 1.29
0.90 0.83 0.82 0.85 0.91 0.97 1.06 1.16 1.18 1.02 0.80 0.70 0.58 0.46 0.43 0.46 0.59 0.67 0.72 0.71 0.72 0.76 0.87 1.04 1.05 1.04 1.05 1.09 1.07 0.99 0.92 0.93 0.96 0.93 0.89 0.93 0.99 1.01 1.04 1.12 1.17 1.25 1.28
0.98 0.88 0.79 0.77 0.82 0.86 0.91 0.98 1.05 1.10 1.00 0.80 0.57 0.38 0.33 0.37 0.47 0.61 0.73 0.71 0.73 0.71 0.76 0.89 0.95 0.97 1.01 1.07 1.06 1.04 1.01 1.03 1.06 1.01 0.98 0.99 1.06 1.09 1.07 1.08 1.15 1.18 1.23
0.88 0.91 0.84 0.79 0.82 0.86 0.89 0.92 0.98 1.01 1.07 1.03 0.80 0.53 0.39 0.41 0.50 0.65 0.74 0.72 0.80 0.82 0.83 0.89 0.93 0.95 0.98 1.05 1.06 1.07 1.08 1.11 1.10 1.10 1.10 1.11 1.16 1.22 1.13 1.07 1.13 1.20 1.17
0.70 0.66 0.63 0.69 0.73 0.80 0.85 0.88 0.91 0.98 1.03 1.05 0.94 0.71 0.46 0.42 0.51 0.69 0.78 0.84 0.90 0.91 0.91 0.91 0.95 0.96 0.98 0.99 1.02 1.03 1.06 1.11 1.11 1.12 1.17 1.20 1.20 1.21 1.14 1.11 1.10 1.15 1.11
0.56 0.50 0.40 0.50 0.63 0.70 0.76 0.80 0.82 0.88 0.95 0.98 0.90 0.61 0.40 0.40 0.55 0.71 0.85 0.94 0.93 0.93 0.92 0.92 0.92 0.89 0.90 0.93 0.96 0.99 1.07 1.11 1.11 1.11 1.16 1.21 1.21 1.19 1.15 1.13 1.11 1.12 1.15
0.54 0.53 0.40 0.43 0.57 0.63 0.66 0.79 0.83 0.85 0.88 0.90 0.81 0.57 0.45 0.49 0.64 0.76 0.92 0.97 0.92 0.90 0.86 0.87 0.87 0.85 0.83 0.87 0.95 1.02 1.09 1.11 1.09 1.08 1.11 1.15 1.16 1.16 1.13 1.12 1.14 1.17 1.20
0.46 0.51 0.42 0.40 0.51 0.50 0.58 0.77 0.82 0.82 0.84 0.84 0.71 0.60 0.58 0.68 0.78 0.89 0.98 0.98 0.92 0.89 0.87 0.86 0.84 0.81 0.75 0.76 0.80 0.88 1.00 1.05 1.01 0.99 1.05 1.05 1.07 1.05 1.02 1.00 1.02 1.09 1.13
0.40 0.48 0.41 0.34 0.38 0.48 0.59 0.71 0.77 0.76 0.78 0.81 0.72 0.62 0.63 0.73 0.81 0.87 0.92 0.89 0.81 0.82 0.82 0.79 0.74 0.69 0.68 0.74 0.78 0.75 0.75 0.75 0.75 0.79 0.86 0.90 0.95 0.99 0.96 0.93 0.97 1.01 1.08
0.41 0.47 0.39 0.30 0.32 0.41 0.56 0.68 0.75 0.76 0.77 0.76 0.69 0.62 0.64 0.71 0.78 0.77 0.74 0.72 0.70 0.71 0.68 0.67 0.68 0.68 0.63 0.57 0.58 0.56 0.55 0.51 0.49 0.54 0.66 0.76 0.81 0.90 0.95 0.97 1.02 1.09 1.11
0.37 0.43 0.39 0.30 0.28 0.36 0.51 0.61 0.68 0.72 0.75 0.73 0.69 0.67 0.69 0.72 0.68 0.64 0.63 0.63 0.63 0.63 0.60 0.58 0.59 0.55 0.53 0.49 0.45 0.45 0.42 0.38 0.36 0.40 0.46 0.58 0.68 0.80 0.87 0.90 0.92 1.01 1.06